{"data":{"norad_id":59338,"intl_designator":"2024-057U","name":"STARLINK-31550","alt_names":[],"object_type":"PAYLOAD","status":"ACTIVE","operator":null,"country":"US","launch_date":"2024-03-25","launch_site_code":"AFETR","launch_vehicle":null,"mission":null,"orbit_class":"UNKNOWN","rcs_meters":null,"size_class":null,"mass_kg":null,"dimensions":null,"purposes":["comms"],"wikipedia_slug":null,"has_3d_model":false,"image_url":null,"decayed_at":null,"tle_current":{"epoch":"2026-05-25T04:24:00.601056Z","epoch_age_seconds":49354,"freshness":"FRESH","line1":"1 59338U 24057U   26145.18334029  .00000701  00000+0  34986-4 0  9995","line2":"2 59338  43.0026 115.4321 0001333 271.6760  88.3938 15.27572876121532","mean_motion":15.27572876,"eccentricity":0.0001333,"inclination_deg":43.0026,"raan_deg":115.4321,"arg_perigee_deg":271.676,"mean_anomaly_deg":88.3938,"bstar":3.4986e-5,"rev_number":12153,"period_min":94.267188336748,"perigee_km":482.15582899126,"apogee_km":483.98502689155,"semimajor_km":6861.2074279414,"source":"CELESTRAK","updated_at":"2026-05-25T13:38:18.906664Z"}}}